Location: Penton Mewsey
(51.2167°N, 1.5167°W)
Time: 15:57:26
(UTC+00:00)

ISS - Visible Passes

Search period start: 25 February 2021 00:00
Search period end: 07 March 2021 00:00
Orbit: 417 x 422 km, 51.6° (Epoch: 26 February)

Date Brightness Start Highest point End Pass type
(mag) Time Alt. Az. Time Alt. Az. Time Alt. Az.
25 Feb -2.9 05:23:12 24° SSW 05:24:47 44° SSE 05:28:02 10° E visible
26 Feb -2.3 04:37:43 32° SE 04:37:43 32° SE 04:40:30 10° E visible
26 Feb -3.7 06:10:41 10° WSW 06:14:03 88° SSE 06:17:26 10° E visible
27 Feb -0.7 03:52:10 14° E 03:52:10 14° E 03:52:52 10° E visible
27 Feb -3.7 05:25:08 31° WSW 05:26:36 75° SSE 05:29:58 10° E visible
28 Feb -3.2 04:39:31 55° SE 04:39:31 55° SE 04:42:30 10° E visible
28 Feb -3.7 06:12:35 10° W 06:15:57 81° N 06:19:20 10° E visible
01 Mar -1.0 03:53:52 19° E 03:53:52 19° E 03:54:59 10° E visible
01 Mar -3.8 05:26:49 28° W 05:28:27 84° N 05:31:50 10° E visible
02 Mar -3.8 04:41:08 79° E 04:41:08 79° E 04:44:20 10° E visible
02 Mar -3.7 06:14:26 10° W 06:17:49 90° NW 06:21:11 10° E visible
03 Mar -1.3 03:55:25 23° E 03:55:25 23° E 03:56:50 10° E visible
03 Mar -3.8 05:28:23 24° W 05:30:18 83° N 05:33:41 10° E visible
04 Mar -3.9 04:42:40 79° NW 04:42:46 81° N 04:46:09 10° E visible
05 Mar -1.6 03:56:57 27° E 03:56:57 27° E 03:58:36 10° E visible
05 Mar -3.8 05:29:54 20° W 05:32:05 78° SSW 05:35:27 10° ESE visible
06 Mar -3.9 04:44:12 70° W 04:44:33 90° WNW 04:47:56 10° E visible
